Regional Weather Roundup
Issued by NWS Austin/San Antonio, TX

Home | Current Version | Previous Version | Text Only | Print | Product List | Glossary On
Versions: 1 2 3 4 5 6 7 8 9 10 11 12 13 14 15 16 17 18 19 20 21 22 23 24 25 26 27 28 29 30 31 32 33 34 35 36 37 38 39 40 41 42 43 44 45 46 47 48 49 50
000
ASUS44 KEWX 280411
RWREWX
SOUTH TEXAS REGIONAL WEATHER ROUNDUP
NATIONAL WEATHER SERVICE AUSTIN/SAN ANTONIO TX
1100 PM CDT WED MAY 27 2020

NOTE: "FAIR" INDICATED FEW OR NO CLOUDS BELOW 12,000 FEET WITH NO
SIGNIFICANT WEATHER AND/OR OBSTRUCTIONS TO VISIBILITY.

* - THESE STATIONS ARE NOT NWS OR FAA STATIONS...AND ARE NOT SUBJECT
    TO NWS AND FAA QUALITY CONTROL.

TXZ171-172-183>190-280500-
TEXAS HILL COUNTRY AND EDWARDS PLATEAU

CITY           SKY/WX    TMP DP  RH WIND       PRES   REMARKS
JUNCTION       CLOUDY    67  65  93 E5        29.92R
*LLANO         CLOUDY    66  64  94 CALM      29.95R
BURNET         CLOUDY    66  62  87 E3        29.94R
*HORSESHOE BAY CLOUDY    66  64  94 CALM      29.92R
*LAGO VISTA    CLOUDY    65  64  96 SE9       29.92R
*KERRVILLE     CLOUDY    64  61  91 CALM      29.92R
*FREDERICKSBRG CLOUDY    64  63  97 CALM      29.92R
*ROCKSPRINGS   CLOUDY    72  61  68 NE9G17    29.97R
*BOERNE        CLOUDY    66  66 100 CALM      29.94R
HONDO          TSTM      72  65  78 NW20G30   29.94R
*UVALDE          N/A     75  62  64 E15G25    29.89R
DEL RIO        CLEAR     87  66  49 E10       29.79R
*LAUGHLIN AFB  CLEAR     82  66  57 E10       29.81R
*SPOFFORD      NOT AVBL
*EAGLE PASS    CLEAR     82  66  57 E7        29.81R
CARRIZO SPRGS  MOCLDY    81  68  65 E8        29.81R
$$

TXZ173-191>194-202-209-217>225-228-280500-
CENTRAL AND SOUTH CENTRAL TEXAS

CITY           SKY/WX    TMP DP  RH WIND       PRES   REMARKS
GEORGETOWN     CLOUDY    67  64  90 SE7       29.92R
*TAYLOR        CLOUDY    66  63  89 SE10      29.91R
AUSTIN/BERGSTM CLOUDY    70  66  87 SE15G23   29.89R
AUSTIN/MABRY   CLOUDY    69  32  25 SE9       29.91R
*PFLUGERVILLE  CLOUDY    66  64  94 SE10      29.91R
SAN MARCOS     CLOUDY    66  64  93 SE5       29.92R
NEW BRAUNFELS  LGT RAIN  70  63  78 NE10      29.90R
*RANDOLPH AFB  LGT RAIN  77  72  83 S15       29.88R
*SEGUIN        CLOUDY    73  68  86 NE14G22   29.92R
SAN ANTONIO    TSTM      74  66  76 S15G24    29.88S
STINSON FIELD  TSTM      71  69  93 SW13G21   29.86R
*KELLY FIELD   CLOUDY    70  68  94 S20G25    29.83F
*PLEASANTON    CLOUDY    75  64  67 E12       29.93R
*KENEDY        CLOUDY    79  71  76 E13G18    29.95R
*LA GRANGE     LGT RAIN  71  65  82 SE15G22   29.88F
*GIDDINGS      CLOUDY    66  64  91 SE5       29.91R
*GONZALES      CLOUDY    67  64  91 SE15G22   29.87F
$$

TXZ163>164-176>182-195>201-210>213-226-227-235-280500-
SOUTHEAST TEXAS

CITY           SKY/WX    TMP DP  RH WIND       PRES   REMARKS
COLLEGE STN    CLOUDY    66  62  87 S8        29.92R
*BRYAN         CLOUDY    66  65  99 SE7       29.93R
*CALDWELL      NOT AVBL
*CROCKETT      NOT AVBL
*BRENHAM         N/A    N/A N/A N/A MISG        N/A
HUNTSVILLE     CLOUDY    69  63  81 SW9       29.92R
CONROE         LGT RAIN  68  61  78 SE22      29.91F
HOUSTON BUSH   RAIN      69  65  86 S12G18    30.02R
HOUSTON HOBBY  CLOUDY    71  63  75 NW12      30.03R
*HOUSTON SW AP CLOUDY    69  65  86 N8        30.06R
PEARLAND       CLOUDY    72  63  73 NW12      30.05R
HOUSTON HOOKS  LGT RAIN  67  61  81 S16G25    29.95F
ELLINGTON FLD  MOCLDY    70  64  83 NW12      30.02
SUGAR LAND     LGT RAIN  70  64  81 N7        30.03R
*HOUSTON EXEC  DRIZZLE   68  64  88 SE12      29.96F
*CLEVELAND MUN RAIN      66  64  93 S14G21    29.98F
*WHARTON       CLOUDY    69  62  78 NE10G18   30.04R
*COLUMBUS      LGT RAIN  67  63  86 S12G20    29.97S
*EAGLE LAKE    LGT RAIN  70  65  82 SE5G16    29.97
$$

TXZ214>216-236>238-280500-
THE UPPER TEXAS COAST

CITY           SKY/WX    TMP DP  RH WIND       PRES   REMARKS
*ORANGE        CLOUDY    68  66  93 W3        29.95R
PORT ARTHUR    CLOUDY    69  66  90 W10       29.94R
GALVESTON      CLOUDY    76  68  76 N8        29.98R
ANGLETON       CLOUDY    70  67  90 N15       30.03R
*BAY CITY      CLOUDY    71  68  91 N22G28    30.02R
PALACIOS       CLOUDY    72  67  84 N17       29.99R
$$

TXZ229>234-239>247-280500-
TEXAS COASTAL BEND AND RIO GRANDE PLAINS

CITY           SKY/WX    TMP DP  RH WIND       PRES   REMARKS
VICTORIA       CLOUDY    74  66  76 N18G30    29.99R
*BEEVILLE      CLOUDY    79  77  93 E9        29.91R
ROCKPORT       PTCLDY    80  73  79 E15       29.90R
*PORT ARANSAS  CLOUDY    80  75  84 E15       29.89R
*PORT LAVACA   CLOUDY    78  75  90 NE13      29.97R
*INGLESIDE     PTCLDY    80  76  88 E13G18    29.88R
CORPUS CHRISTI MOCLDY    79  75  87 SE13      29.85R
CORPUS NAS     MOCLDY    80  77  90 SE21      29.85R
*ROBSTOWN      PTCLDY    77  73  87 SE10      29.85R
ALICE          PTCLDY    77  72  84 SE10      29.83R
KINGSVILLE NAS PTCLDY    77  73  87 E8        29.84R
COTULLA        MOCLDY    83  71  67 E10       29.85R
LAREDO         MOCLDY    83  71  67 SE17G24   29.77R
$$

TXZ248>255-280500-
DEEP SOUTH TEXAS

CITY           SKY/WX    TMP DP  RH WIND       PRES   REMARKS
BROWNSVILLE    CLEAR     79  73  82 SE7       29.83R
PORT ISABEL    CLEAR     78  73  84 SE7       29.83R
HARLINGEN      CLEAR     77  72  84 SE10      29.83R
*HEBBRONVILLE  CLEAR     79  66  64 S10       29.83R
MCALLEN        CLEAR     78  70  76 SE8       29.83R
*WESLACO       PTCLDY    79  70  74 SE6       29.83
FALFURRIAS     NOT AVBL
EDINBURG       CLEAR     77  67  72 SE6       29.82R
*ZAPATA        NOT AVBL
$$

TXZ213>215-236>238-242>244-246-247-251-254-255-280500-
CMAN STATIONS

STATION/POSITION TIME  TEMP    WIND        PRES    WAVE
                       AIR SEA DIR/SP/G            HT/PER
                 (UTC) (F)     (DEG/KT/KT) (MB)    (FT/S)
SABINE PASS      0324   72 83  190/  2/  3 1014.3
NORTH JETTY/GLS  0324   76 81  100/  4/  5 1012.6
EAGLE POINT      0324   77 80   CALM  /  3 1013.8
MORGANS POINT    0324   73 82  330/ 14/ 23 1015.7
PORT O`CONNOR    0324   79 85  100/ 13/ 16 1012.2
PORT ARANSAS     0400   80 83   90/ 18/ 20 1011.6
MALAQUITE BEACH  0324   81 91   90/ 18/ 20 1010.4
BAFFIN BAY       0324   81 85  110/ 13/ 16 1010.7
PORT ISABEL      0324   81 82  150/ 10/ 12 1012.2
$$




USA.gov is the U.S. government's official web portal to all federal, state and local government web resources and services.